[[{"header":{"parameterUnit":"m.s-1","parameterCategory":2,"la1":30.2991,"la2":30.254,"lo1":-89.0895,"lo2":-89.0444,"dy":0.0017,"dx":0.0017,"nx":28,"ny":28,"refTime":"2025-09-04T09:00:00:Z","depth":"0","parameterNumber":2,"parameterNumberName":"U-component_of_CURRENTS"},"data":[0,0,0,0,0,0,0,0,0,0,0,0,0,0,0,0,0,0,0,0,0,0,0,0,0,0,0,0,0,0,0,0,0,0,0,0,0,0,0,0,0,0,0,0,0,0,0,0,0,0,0,0,0,0,0,0,0,0,0.3375,0.3376,0,0.3452,0.3453,0.3454,0.349,0.349,0.349,0.3491,0.3465,0.3464,0.3463,0,0,0,0,0,0,0,0,0,0,0,0,0,0.3251,0.3253,0.3375,0.3377,0.3378,0.3452,0.3453,0.3454,0.349,0.349,0.3491,0.3491,0.3465,0.3464,0.3463,0,0,0,0,0,0,0,0,0,0,0,0,0,0.331,0.3253,0.3375,0.3408,0.3412,0.3452,0.3453,0.3454,0.349,0.349,0.3491,0.3491,0.3466,0.3464,0.3463,0.3443,0,0,0.3458,0.3457,0,0,0,0,0,0,0,0,0.3307,0.3314,0.3402,0.3406,0.3411,0.3466,0.34,0.3447,0.3489,0.3456,0.3491,0.3491,0.3458,0.3457,0.3466,0.3442,0.3441,0.3458,0.3457,0.3456,0.3456,0,0,0,0,0,0,0,0.3302,0.3311,0.3401,0.3403,0.3409,0.3417,0.3425,0.3409,0.3448,0.3459,0.3463,0.3478,0.3459,0.3467,0.3465,0.344,0.3458,0.3457,0.3456,0.3455,0.3441,0.3442,0,0,0,0,0,0,0.3302,0.3307,0.3399,0.3404,0.3364,0.3419,0.3428,0.3444,0.345,0.3454,0.3477,0.3479,0.347,0.3467,0.3464,0.3479,0.3456,0.3455,0.3454,0.3441,0.3441,0.3442,0,0,0,0,0,0,0.3299,0.3309,0.3396,0.3361,0.3373,0.3421,0.3438,0.3445,0.346,0.3467,0.3467,0.3486,0.347,0.3467,0.3467,0.3477,0.3454,0.3453,0.344,0.3441,0.3441,0.3483,0,0,0,0,0,0,0.3295,0.3308,0.3315,0.3361,0.3375,0.3426,0.3438,0.3447,0.3471,0.3474,0.3474,0.3472,0.347,0.347,0.3466,0.3474,0.3452,0.3439,0.344,0.3441,0.3481,0.3485,0.3489,0,0,0,0,0,0.329,0.3303,0.3315,0.3326,0.3385,0.3427,0.3435,0.3467,0.3471,0.3481,0.3486,0.3473,0.3473,0.3469,0.3464,0.3472,0.3439,0.344,0.3441,0.3479,0.3484,0.3489,0,0,0,0,0,0,0.3253,0.331,0.3323,0.3353,0.3389,0.3435,0.3449,0.3466,0.3479,0.348,0.3477,0.3476,0.3482,0.3468,0.3463,0.3472,0.3454,0.3454,0.3485,0.3489,0.3493,0.3479,0.3451,0,0,0,0,0,0.3248,0.3269,0.3324,0.3344,0.3365,0.3403,0.3423,0.3447,0.3469,0.3477,0.3477,0.3476,0.3482,0.3479,0.3478,0.3474,0.3508,0.3477,0.3481,0.3484,0.3471,0.3525,0.3533,0.3446,0.3446,0.3446,0,0,0.3238,0.3272,0.3283,0.3337,0.3365,0.3396,0.3415,0.345,0.3468,0.3468,0.3479,0.3488,0.3485,0.3495,0.3495,0.3484,0.3541,0.3486,0.3489,0.3473,0.3527,0.3536,0.3544,0.3447,0.3446,0.3446,0,0,0.3232,0.3259,0.3279,0.331,0.3362,0.339,0.34,0.3447,0.3462,0.3482,0.3489,0.3503,0.3503,0.3511,0.3512,0.353,0.3562,0.3531,0.3536,0.359,0.3598,0.3605,0.3725,0.3742,0.3531,0.3531,0.3531,0,0.3219,0.3254,0.329,0.3318,0.3346,0.3386,0.3414,0.3433,0.3471,0.3488,0.3489,0.3515,0.351,0.3528,0.3539,0.3538,0.3598,0.3521,0.3597,0.3604,0.3611,0.3731,0.3749,0.3533,0.3533,0.3532,0.3532,0,0.3234,0.326,0.3274,0.3323,0.3353,0.3383,0.3425,0.3449,0.3471,0.3498,0.3526,0.353,0.3545,0.3552,0.3549,0.3588,0.3632,0.3602,0.3588,0.3622,0.3747,0.3766,0.3536,0.3535,0.3534,0.3534,0,0,0.3218,0.3275,0.3278,0.3299,0.3361,0.3386,0.342,0.3471,0.3498,0.3523,0.3565,0.3565,0.3573,0.3573,0.3575,0.3612,0.3731,0.3625,0.3627,0.3751,0.3916,0.3902,0.3921,0.3722,0.3723,0.3725,0.401,0,0.3224,0.3261,0.3296,0.333,0.3359,0.3406,0.3433,0.3479,0.3519,0.3566,0.3583,0.3615,0.3578,0.3599,0.3626,0.3709,0.3771,0.366,0.3857,0.3864,0.385,0.3937,0.3739,0.397,0.4028,0.4031,0.4034,0,0.3237,0.3261,0.3292,0.3342,0.336,0.3382,0.3447,0.3478,0.3551,0.3585,0.3619,0.3648,0.3708,0.3666,0.3812,0.3751,0.3827,0.3887,0.3899,0.3869,0.3879,0.3931,0.4001,0.3858,0.4062,0.406,0.4058,0,0.321,0.3261,0.3281,0.3298,0.3359,0.3381,0.3415,0.3484,0.3522,0.3604,0.3661,0.3716,0.3785,0.3853,0.3967,0.3908,0.416,0.4098,0.4164,0.4168,0.4025,0.4011,0.3969,0.4195,0.4194,0.4194,0.4193,0,0.321,0.3228,0.3265,0.3275,0.3303,0.3356,0.3396,0.3444,0.3528,0.3603,0.3656,0.3747,0.3833,0.398,0.4038,0.4189,0.4226,0.4191,0.423,0.4041,0.4026,0.391,0.3856,0.4204,0.4202,0.42,0.4198,0,0.3187,0.3211,0.3233,0.3277,0.3291,0.3308,0.3378,0.3423,0.3502,0.3614,0.3653,0.3823,0.4029,0.414,0.4326,0.431,0.4312,0.4471,0.4281,0.4288,0.4143,0.4099,0.4016,0.3903,0.4581,0.4582,0.4583,0,0.3185,0.3191,0.3214,0.323,0.325,0.3283,0.3323,0.3394,0.3464,0.3671,0.3748,0.398,0.4132,0.4413,0.4446,0.4582,0.4418,0.4466,0.4266,0.4128,0.411,0.3942,0.3839,0.4145,0.4142,0.414,0.4138,0,0.3187,0.3183,0.3195,0.3225,0.3255,0.3274,0.3343,0.3386,0.3519,0.3625,0.3828,0.3967,0.4233,0.4291,0.4459,0.4489,0.4209,0.4424,0.4301,0.3782,0.3574,0.3486,0.4026,0.4118,0.412,0.4122,0.4123,0.4124,0.3193,0.3189,0.3213,0.323,0.3259,0.3285,0.3282,0.3384,0.3478,0.362,0.3817,0.394,0.4079,0.4271,0.4291,0.4134,0.4127,0.3965,0.3949,0.3812,0.358,0.4114,0.4215,0.4217,0.4219,0.4221,0.4223,0,0.3215,0.3215,0.3236,0.3246,0.3252,0.3271,0.3319,0.3306,0.339,0.353,0.3661,0.3739,0.3801,0.3864,0.3796,0.3644,0.345,0.3543,0.3214,0.3156,0.3654,0.3503,0.3424,0.3425,0.3425,0.3425,0.3425,0.3425,0.3239,0.325,0.3241,0.3244,0.324,0.32,0.3195,0.3185,0.3231,0.3246,0.3245,0.3321,0.3458,0.35,0.3331,0.3242,0.2963,0.2849,0.2873,0.3169,0.3203,0.3236,0.3076,0.2909,0.2909,0.2183,0.2177,0.2173]},{"header":{"parameterUnit":"m.s-1","parameterCategory":2,"la1":30.2991,"la2":30.254,"lo1":-89.0895,"lo2":-89.0444,"dy":0.0017,"dx":0.0017,"nx":28,"ny":28,"refTime":"2025-09-04T09:00:00:Z","depth":"0","parameterNumber":3,"parameterNumberName":"V-component_of_CURRENTS"},"data":[0,0,0,0,0,0,0,0,0,0,0,0,0,0,0,0,0,0,0,0,0,0,0,0,0,0,0,0,0,0,0,0,0,0,0,0,0,0,0,0,0,0,0,0,0,0,0,0,0,0,0,0,0,0,0,0,0,0,-0.0162,-0.0163,0,-0.0218,-0.0219,-0.0219,-0.0238,-0.0238,-0.0237,-0.0237,-0.031,-0.0312,-0.0314,0,0,0,0,0,0,0,0,0,0,0,0,0,-0.0122,-0.0122,-0.0162,-0.0163,-0.0164,-0.0218,-0.0219,-0.022,-0.0238,-0.0238,-0.0237,-0.0237,-0.0309,-0.0311,-0.0314,0,0,0,0,0,0,0,0,0,0,0,0,0,-0.0154,-0.0122,-0.0162,-0.0179,-0.0182,-0.0218,-0.0219,-0.022,-0.0238,-0.0238,-0.0237,-0.0237,-0.0308,-0.0311,-0.0314,-0.0341,0,0,-0.0324,-0.0325,0,0,0,0,0,0,0,0,-0.0152,-0.0156,-0.0176,-0.0178,-0.0181,-0.0221,-0.0231,-0.0261,-0.0238,-0.0216,-0.0237,-0.0237,-0.0282,-0.0287,-0.0298,-0.0344,-0.0347,-0.0324,-0.0326,-0.0328,-0.0329,0,0,0,0,0,0,0,-0.015,-0.0154,-0.0184,-0.0177,-0.018,-0.0202,-0.0206,-0.0237,-0.025,-0.0218,-0.022,-0.0226,-0.0283,-0.0295,-0.03,-0.0348,-0.0324,-0.0327,-0.0329,-0.033,-0.0452,-0.0453,0,0,0,0,0,0,-0.0141,-0.0151,-0.0182,-0.0186,-0.0166,-0.0203,-0.0207,-0.0208,-0.025,-0.0256,-0.0227,-0.0227,-0.0289,-0.0296,-0.0302,-0.0331,-0.0328,-0.0331,-0.0332,-0.0451,-0.0452,-0.0454,0,0,0,0,0,0,-0.014,-0.0143,-0.018,-0.017,-0.0177,-0.0203,-0.0205,-0.0209,-0.0222,-0.0256,-0.0262,-0.0234,-0.0289,-0.0298,-0.0342,-0.0334,-0.0332,-0.0335,-0.0449,-0.0451,-0.0453,-0.0392,0,0,0,0,0,0,-0.0139,-0.0142,-0.0142,-0.017,-0.0177,-0.02,-0.0205,-0.0211,-0.0227,-0.0228,-0.0265,-0.0271,-0.029,-0.0337,-0.0345,-0.0338,-0.0337,-0.0447,-0.045,-0.0452,-0.0392,-0.0391,-0.0391,0,0,0,0,0,-0.0137,-0.0132,-0.0142,-0.0146,-0.0175,-0.02,-0.0206,-0.0224,-0.0227,-0.0234,-0.0267,-0.027,-0.0358,-0.034,-0.035,-0.0344,-0.0446,-0.0449,-0.0452,-0.0392,-0.0391,-0.0391,0,0,0,0,0,0,-0.0112,-0.0134,-0.0146,-0.0147,-0.0173,-0.0203,-0.0208,-0.0225,-0.0256,-0.0256,-0.0288,-0.0297,-0.0332,-0.0359,-0.0339,-0.0392,-0.0403,-0.0407,-0.0354,-0.0354,-0.0353,-0.0297,-0.034,0,0,0,0,0,-0.0108,-0.011,-0.0141,-0.0143,-0.0153,-0.0182,-0.0195,-0.021,-0.024,-0.0252,-0.0281,-0.0318,-0.0353,-0.0369,-0.0406,-0.0434,-0.0419,-0.044,-0.0439,-0.0438,-0.0404,-0.0402,-0.0395,-0.0463,-0.0463,-0.0463,0,0,-0.0099,-0.0112,-0.0114,-0.0138,-0.0156,-0.0162,-0.0189,-0.0205,-0.0208,-0.0257,-0.0272,-0.0318,-0.0364,-0.0394,-0.0411,-0.0412,-0.0412,-0.0442,-0.044,-0.0405,-0.0404,-0.0396,-0.039,-0.0465,-0.0465,-0.0465,0,0,-0.0076,-0.0093,-0.0086,-0.0103,-0.013,-0.015,-0.0154,-0.0189,-0.0201,-0.0235,-0.0267,-0.0305,-0.0364,-0.0384,-0.0404,-0.0425,-0.0413,-0.0451,-0.0392,-0.0391,-0.0383,-0.0377,-0.0336,-0.0326,-0.0445,-0.0445,-0.0444,0,-0.0063,-0.0056,-0.009,-0.0086,-0.0089,-0.014,-0.0129,-0.0154,-0.0199,-0.0196,-0.0233,-0.0299,-0.035,-0.0358,-0.0374,-0.0416,-0.0402,-0.0384,-0.0383,-0.0377,-0.0371,-0.0331,-0.0321,-0.0442,-0.0442,-0.0442,-0.0443,0,-0.0033,-0.0029,-0.0025,-0.0033,-0.0046,-0.0048,-0.0083,-0.0097,-0.0127,-0.0144,-0.0169,-0.0242,-0.027,-0.0308,-0.0349,-0.0337,-0.0335,-0.0382,-0.0369,-0.0359,-0.0319,-0.031,-0.0438,-0.0439,-0.044,-0.0441,0,0,0.001,-0.0,0.0003,0.0022,-0.0014,-0.001,-0.0021,-0.0026,0.0002,-0.0068,-0.0032,-0.0128,-0.0157,-0.0183,-0.0242,-0.0249,-0.0216,-0.0293,-0.0294,-0.022,-0.0174,-0.0156,-0.0144,-0.0261,-0.0259,-0.0258,-0.0156,0,0.0049,0.0084,0.0058,0.0094,0.0115,0.0074,0.0083,0.007,0.0047,0.0063,-0.0003,-0.0003,-0.0113,-0.0114,-0.0149,-0.0195,-0.019,-0.0236,-0.0221,-0.0219,-0.0179,-0.0133,-0.0148,-0.0056,-0.0146,-0.0145,-0.0144,0,0.0097,0.0117,0.0164,0.0191,0.0197,0.0211,0.0242,0.0241,0.0237,0.0225,0.0201,0.0154,0.013,0.0033,-0.0017,-0.004,-0.0094,-0.0134,-0.0132,-0.0121,-0.0183,-0.0089,-0.0036,-0.0227,-0.0129,-0.013,-0.0131,0,0.0176,0.0198,0.0248,0.0253,0.0266,0.0294,0.0302,0.0305,0.0344,0.0351,0.0399,0.0324,0.0347,0.0236,0.0129,0.0063,0.0103,-0.0005,-0.0027,-0.0025,-0.0034,-0.0035,-0.0133,-0.0015,-0.0016,-0.0016,-0.0016,0,0.0241,0.0286,0.0299,0.0333,0.0415,0.0389,0.0475,0.0474,0.051,0.0614,0.0503,0.0596,0.0403,0.0387,0.0226,0.0162,0.0178,0.0026,0.0009,-0.0015,-0.0016,-0.0182,-0.0291,-0.0012,-0.0013,-0.0014,-0.0014,0,0.0333,0.0328,0.0406,0.0442,0.0461,0.053,0.0597,0.0664,0.0685,0.0824,0.0849,0.0842,0.0835,0.0653,0.0534,0.0349,0.0151,0.0214,0.0223,0.0205,-0.0048,-0.0152,-0.0202,-0.0272,0.0192,0.0193,0.0194,0,0.0385,0.043,0.0507,0.0567,0.0593,0.0676,0.0739,0.0756,0.0851,0.1007,0.111,0.1153,0.1229,0.1054,0.0737,0.0501,0.0283,0.0314,0.0157,-0.0021,-0.0151,-0.0233,-0.0297,0.0174,0.0175,0.0176,0.0176,0,0.0496,0.0524,0.059,0.0709,0.0792,0.089,0.0995,0.1101,0.118,0.1327,0.1557,0.1641,0.1486,0.126,0.0908,0.0697,0.017,0.0319,0.0119,-0.0163,-0.0241,-0.033,0.0088,0.0182,0.0181,0.0181,0.018,0.018,0.0589,0.0664,0.0747,0.0864,0.0966,0.1121,0.1238,0.1386,0.1592,0.1855,0.19,0.2063,0.1656,0.1182,0.0886,0.0264,0.0262,0.0034,-0.0067,-0.0125,-0.0235,0.0227,0.0297,0.0297,0.0297,0.0297,0.0297,0,0.0699,0.077,0.0891,0.104,0.118,0.1203,0.1418,0.1566,0.1859,0.209,0.2296,0.2162,0.1686,0.1126,0.0301,-0.0087,-0.0261,-0.0304,-0.0468,-0.051,-0.0111,-0.0159,-0.0166,-0.0166,-0.0165,-0.0165,-0.0165,-0.0165,0.0761,0.0889,0.0947,0.1192,0.1307,0.1511,0.1651,0.1897,0.2092,0.2388,0.2464,0.248,0.199,0.0612,-0.0306,-0.0503,-0.0799,-0.0829,-0.0948,-0.0751,-0.0729,-0.0709,-0.0783,-0.092,-0.0921,-0.1327,-0.1332,-0.1335]}],[{"header":{"parameterUnit":"m.s-1","parameterCategory":2,"la1":30.2991,"la2":30.254,"lo1":-89.0895,"lo2":-89.0444,"dy":0.0017,"dx":0.0017,"nx":28,"ny":28,"refTime":"2025-09-04T09:00:00:Z","depth":"2","parameterNumber":2,"parameterNumberName":"U-component_of_CURRENTS"},"data":[0,0,0,0,0,0,0,0,0,0,0,0,0,0,0,0,0,0,0,0,0,0,0,0,0,0,0,0,0,0,0,0,0,0,0,0,0,0,0,0,0,0,0,0,0,0,0,0,0,0,0,0,0,0,0,0,0,0,0.2339,0.234,0,0.2367,0.2367,0.2367,0.2313,0.2312,0.231,0.2308,0.2352,0.2355,0.2357,0,0,0,0,0,0,0,0,0,0,0,0,0,0.2242,0.2244,0.2339,0.234,0.234,0.2367,0.2367,0.2367,0.2314,0.2312,0.231,0.2308,0.2351,0.2354,0.2358,0,0,0,0,0,0,0,0,0,0,0,0,0,0.2277,0.2245,0.2339,0.2317,0.2316,0.2367,0.2367,0.2367,0.2314,0.2312,0.2309,0.2307,0.235,0.2354,0.2358,0.2433,0,0,0.237,0.2372,0,0,0,0,0,0,0,0,0.2276,0.2281,0.232,0.2319,0.2317,0.2335,0.2349,0.2391,0.2315,0.2314,0.2308,0.2305,0.2351,0.2354,0.2363,0.2435,0.2437,0.2371,0.2373,0.2375,0.2376,0,0,0,0,0,0,0,0.2273,0.2279,0.2349,0.2321,0.2319,0.2307,0.2309,0.2356,0.2345,0.2313,0.231,0.2316,0.2349,0.2359,0.2364,0.2438,0.2371,0.2374,0.2377,0.2378,0.2572,0.2575,0,0,0,0,0,0,0.2275,0.2278,0.2348,0.235,0.2291,0.2311,0.2313,0.2331,0.2344,0.2344,0.2318,0.2313,0.2354,0.2359,0.2365,0.2488,0.2375,0.2379,0.2381,0.2569,0.2573,0.2575,0,0,0,0,0,0,0.2273,0.2282,0.2347,0.2314,0.2321,0.2315,0.2336,0.2333,0.2358,0.2347,0.2347,0.2347,0.2352,0.236,0.2421,0.2488,0.2381,0.2384,0.2566,0.257,0.2574,0.2713,0,0,0,0,0,0,0.2271,0.2281,0.2294,0.2315,0.2324,0.2377,0.2338,0.2335,0.2365,0.2359,0.2373,0.2372,0.235,0.2415,0.2425,0.2491,0.2387,0.2563,0.2568,0.2573,0.2705,0.2721,0.2735,0,0,0,0,0,0.2267,0.229,0.2295,0.2303,0.2342,0.2379,0.2382,0.2368,0.2369,0.2382,0.24,0.2373,0.2453,0.2422,0.2432,0.2501,0.256,0.2566,0.2572,0.2698,0.2718,0.2735,0,0,0,0,0,0,0.2252,0.2288,0.2293,0.2325,0.2352,0.237,0.2386,0.2396,0.2425,0.2425,0.2419,0.2422,0.2492,0.2486,0.2451,0.2569,0.25,0.2508,0.2591,0.261,0.2625,0.2647,0.2391,0,0,0,0,0,0.2261,0.229,0.232,0.235,0.2368,0.2392,0.2409,0.2408,0.2435,0.2445,0.2472,0.2496,0.2529,0.2558,0.2574,0.2663,0.2671,0.2709,0.2725,0.2738,0.2763,0.283,0.2854,0.2595,0.2595,0.2595,0,0,0.2267,0.229,0.2307,0.235,0.2374,0.2418,0.2396,0.2433,0.2489,0.2451,0.2548,0.2551,0.256,0.2635,0.2668,0.2641,0.2818,0.2745,0.2757,0.2775,0.2839,0.2865,0.2887,0.26,0.2599,0.2598,0,0,0.2299,0.2319,0.2356,0.2386,0.2426,0.2445,0.2469,0.2517,0.2553,0.2634,0.2624,0.2682,0.2735,0.2768,0.2786,0.2908,0.2885,0.2904,0.302,0.3086,0.3108,0.3128,0.318,0.3204,0.2925,0.2925,0.2925,0,0.2311,0.235,0.2372,0.2418,0.2455,0.247,0.2528,0.2578,0.2646,0.27,0.2671,0.2786,0.2803,0.2912,0.2953,0.2947,0.2967,0.295,0.3108,0.3127,0.3144,0.3194,0.3217,0.2932,0.2931,0.2931,0.293,0,0.2359,0.2401,0.243,0.2497,0.2548,0.259,0.2663,0.2735,0.278,0.2818,0.2931,0.2959,0.3025,0.3047,0.3045,0.319,0.3158,0.3109,0.3063,0.3179,0.3223,0.3246,0.2943,0.294,0.2938,0.2936,0,0,0.2369,0.2448,0.2459,0.2513,0.2589,0.2645,0.2762,0.2866,0.2956,0.3014,0.3123,0.3213,0.3222,0.3246,0.326,0.3336,0.3494,0.3296,0.3296,0.3353,0.3641,0.3475,0.3482,0.3469,0.3474,0.3477,0.3625,0,0.2402,0.249,0.2529,0.2643,0.2704,0.2775,0.2891,0.2994,0.3066,0.3173,0.3226,0.3301,0.33,0.3333,0.3426,0.3467,0.3558,0.3459,0.3516,0.3519,0.336,0.3504,0.3227,0.3322,0.3646,0.365,0.3653,0,0.2431,0.2492,0.26,0.2739,0.2778,0.2861,0.3044,0.3141,0.3279,0.3328,0.3413,0.3426,0.3571,0.3515,0.3699,0.3633,0.3672,0.3691,0.3696,0.3509,0.3394,0.3256,0.3349,0.3689,0.3686,0.3683,0.3681,0,0.2427,0.2546,0.2637,0.2681,0.2839,0.294,0.3034,0.3195,0.328,0.3416,0.346,0.3595,0.3659,0.3746,0.3815,0.3769,0.3974,0.3898,0.3789,0.3777,0.3536,0.3493,0.4031,0.4031,0.4031,0.403,0.403,0,0.2448,0.2521,0.2651,0.2706,0.2843,0.297,0.3124,0.3227,0.3361,0.3444,0.3538,0.3598,0.3721,0.3827,0.3875,0.3917,0.4033,0.385,0.382,0.3574,0.3535,0.3833,0.3808,0.4036,0.4034,0.4033,0.4032,0,0.246,0.2512,0.2633,0.2802,0.2842,0.2965,0.3122,0.3227,0.3362,0.3469,0.3501,0.3639,0.3743,0.3852,0.3986,0.3974,0.4026,0.4005,0.3702,0.3631,0.3771,0.3752,0.3901,0.3897,0.3893,0.389,0.3888,0,0.2478,0.2538,0.2686,0.2728,0.2809,0.296,0.3045,0.3197,0.328,0.3467,0.35,0.3629,0.3666,0.3813,0.3796,0.3845,0.3948,0.3623,0.3472,0.3811,0.3767,0.3753,0.3739,0.3228,0.322,0.3214,0.3209,0,0.2528,0.2578,0.2639,0.2712,0.2799,0.2892,0.3016,0.3048,0.3226,0.3314,0.3384,0.3421,0.3531,0.3416,0.3486,0.347,0.3585,0.3487,0.3973,0.3271,0.3178,0.3133,0.3142,0.3153,0.3158,0.3162,0.3165,0.3168,0.2542,0.2551,0.2591,0.2648,0.2725,0.2759,0.2763,0.2875,0.292,0.2982,0.313,0.3125,0.3184,0.3072,0.3016,0.2988,0.32,0.3108,0.3128,0.3155,0.3018,0.292,0.2822,0.2825,0.2828,0.2831,0.2834,0,0.2551,0.2497,0.252,0.2527,0.2539,0.2651,0.2682,0.2626,0.2596,0.2744,0.2766,0.2548,0.2498,0.2577,0.2436,0.2445,0.2427,0.2365,0.2337,0.2395,0.2447,0.2273,0.188,0.1877,0.1874,0.1871,0,0,0.2519,0.2472,0.2414,0.231,0.2338,0.2285,0.2257,0.2213,0.2242,0.2166,0.2198,0.2369,0.2508,0.2154,0.2117,0.1985,0.2171,0.1907,0.2678,0.2704,0.2751,0.2887,0.2686,0,0,0,0,0]},{"header":{"parameterUnit":"m.s-1","parameterCategory":2,"la1":30.2991,"la2":30.254,"lo1":-89.0895,"lo2":-89.0444,"dy":0.0017,"dx":0.0017,"nx":28,"ny":28,"refTime":"2025-09-04T09:00:00:Z","depth":"2","parameterNumber":3,"parameterNumberName":"V-component_of_CURRENTS"},"data":[0,0,0,0,0,0,0,0,0,0,0,0,0,0,0,0,0,0,0,0,0,0,0,0,0,0,0,0,0,0,0,0,0,0,0,0,0,0,0,0,0,0,0,0,0,0,0,0,0,0,0,0,0,0,0,0,0,0,0.0171,0.0171,0,0.0115,0.0114,0.0113,0.0081,0.0081,0.0081,0.0082,-0.0022,-0.0024,-0.0027,0,0,0,0,0,0,0,0,0,0,0,0,0,0.02,0.0199,0.0171,0.0171,0.017,0.0116,0.0114,0.0113,0.0081,0.0081,0.0081,0.0082,-0.0021,-0.0024,-0.0028,0,0,0,0,0,0,0,0,0,0,0,0,0,0.0166,0.0199,0.0171,0.0151,0.0149,0.0116,0.0114,0.0113,0.0081,0.0081,0.0081,0.0082,-0.0019,-0.0024,-0.0028,-0.0065,0,0,-0.0042,-0.0044,0,0,0,0,0,0,0,0,0.0168,0.0164,0.0154,0.0152,0.015,0.0109,0.0087,0.0053,0.008,0.0102,0.0082,0.0082,0.0021,0.0013,-0.0005,-0.007,-0.0074,-0.0042,-0.0045,-0.0047,-0.0048,0,0,0,0,0,0,0,0.017,0.0166,0.0144,0.0154,0.0152,0.0128,0.0124,0.008,0.0055,0.01,0.0098,0.01,0.0019,-0.0,-0.0007,-0.0076,-0.0042,-0.0046,-0.0049,-0.0051,-0.013,-0.0129,0,0,0,0,0,0,0.0188,0.0168,0.0146,0.0143,0.0165,0.0128,0.0123,0.0118,0.0056,0.0049,0.0099,0.0098,0.0007,-0.0002,-0.0011,-0.004,-0.0047,-0.0051,-0.0054,-0.013,-0.013,-0.0129,0,0,0,0,0,0,0.0189,0.0187,0.0148,0.0158,0.0153,0.0128,0.0123,0.0117,0.0099,0.0057,0.0048,0.0088,0.0007,-0.0005,-0.004,-0.0045,-0.0053,-0.0057,-0.0131,-0.013,-0.0129,-0.011,0,0,0,0,0,0,0.019,0.0187,0.0184,0.016,0.0153,0.0148,0.0122,0.0116,0.0101,0.0099,0.0044,0.0035,0.0007,-0.0033,-0.0044,-0.0052,-0.0061,-0.0132,-0.0131,-0.013,-0.0112,-0.0109,-0.0107,0,0,0,0,0,0.0191,0.0201,0.0184,0.0182,0.0152,0.015,0.0144,0.0124,0.01,0.0105,0.0062,0.0037,-0.0033,-0.0036,-0.005,-0.0059,-0.0132,-0.0131,-0.013,-0.0113,-0.011,-0.0107,0,0,0,0,0,0,0.0215,0.0198,0.0179,0.0183,0.0173,0.0147,0.0149,0.0123,0.009,0.0087,0.0032,0.0021,-0.0002,-0.0032,-0.0035,-0.0073,-0.0083,-0.0084,-0.0065,-0.0062,-0.006,-0.0083,-0.0065,0,0,0,0,0,0.0217,0.0216,0.0199,0.02,0.02,0.0167,0.0159,0.0149,0.0121,0.0106,0.0056,0.0017,-0.0009,-0.0036,-0.0058,-0.0099,-0.0114,-0.0106,-0.0104,-0.0101,-0.0126,-0.0171,-0.0175,-0.0124,-0.0124,-0.0124,0,0,0.0223,0.0216,0.0212,0.0204,0.0192,0.0208,0.0163,0.0168,0.0162,0.0099,0.0063,0.0027,-0.0011,-0.0039,-0.0054,-0.007,-0.0107,-0.01,-0.0098,-0.0125,-0.017,-0.0175,-0.018,-0.0123,-0.0124,-0.0124,0,0,0.0252,0.0234,0.0248,0.0253,0.0252,0.0237,0.024,0.0209,0.0177,0.015,0.0105,0.0056,0.0013,-0.0034,-0.0055,-0.0056,-0.0079,-0.0052,-0.0082,-0.0123,-0.0129,-0.0134,-0.0091,-0.0093,-0.0067,-0.0067,-0.0067,0,0.0261,0.028,0.0252,0.0283,0.0285,0.0256,0.0276,0.0251,0.0203,0.0168,0.0157,0.006,0.0017,-0.004,-0.0051,-0.0054,-0.0058,-0.0093,-0.0123,-0.0129,-0.0135,-0.009,-0.0093,-0.0066,-0.0066,-0.0066,-0.0066,0,0.0312,0.0331,0.0348,0.0367,0.0358,0.0386,0.0351,0.0319,0.0275,0.0245,0.0178,0.0103,0.0033,0.002,-0.0029,-0.0098,-0.0074,-0.0102,-0.0137,-0.0139,-0.009,-0.0093,-0.0064,-0.0065,-0.0065,-0.0065,0,0,0.0326,0.0374,0.038,0.039,0.0409,0.04,0.0387,0.0354,0.0323,0.0272,0.0216,0.0132,0.0063,0.0029,-0.0045,-0.011,-0.0145,-0.0145,-0.0148,-0.011,-0.0183,-0.0207,-0.0211,-0.0192,-0.0194,-0.0196,-0.0107,0,0.0376,0.0444,0.0441,0.048,0.0506,0.0467,0.0443,0.0402,0.0357,0.0301,0.0213,0.016,0.008,0.0024,-0.0057,-0.0117,-0.0164,-0.0163,-0.018,-0.0179,-0.0211,-0.0222,-0.0206,-0.0133,-0.011,-0.011,-0.0111,0,0.0425,0.0463,0.0513,0.0511,0.0511,0.0511,0.0442,0.042,0.0354,0.0318,0.0242,0.0187,0.0084,0.0013,-0.0097,-0.0094,-0.0158,-0.0199,-0.0197,-0.0245,-0.0214,-0.014,-0.014,-0.0116,-0.0115,-0.0115,-0.0115,0,0.0436,0.0497,0.0527,0.0543,0.0546,0.0508,0.0479,0.0415,0.0409,0.0318,0.034,0.0203,0.018,0.0046,-0.0046,-0.0084,-0.0131,-0.0175,-0.0238,-0.0234,-0.0241,-0.0238,-0.0273,-0.0273,-0.0274,-0.0274,-0.0274,0,0.0487,0.0504,0.053,0.0552,0.055,0.051,0.0485,0.0439,0.0414,0.0465,0.0337,0.0365,0.0176,0.0137,-0.0003,-0.0102,-0.0085,-0.0251,-0.0243,-0.0224,-0.022,-0.0242,-0.024,-0.027,-0.0271,-0.0272,-0.0272,0,0.0474,0.052,0.0547,0.0555,0.0563,0.0533,0.0543,0.0543,0.051,0.0576,0.0569,0.0521,0.0454,0.0302,0.0144,0.0009,-0.0119,-0.0162,-0.0088,-0.0079,-0.0196,-0.0193,-0.0233,-0.0234,-0.0234,-0.0235,-0.0235,0,0.0473,0.0495,0.0547,0.0581,0.0583,0.0573,0.0596,0.0583,0.0639,0.0705,0.0777,0.0725,0.0718,0.0499,0.0217,-0.0004,-0.0059,-0.0132,-0.0259,-0.0219,-0.0206,-0.0202,-0.0198,-0.0201,-0.0201,-0.0201,-0.0201,0,0.0453,0.0467,0.0513,0.0599,0.0639,0.0699,0.075,0.0833,0.0874,0.0964,0.1089,0.1077,0.085,0.0601,0.026,0.0089,-0.0117,-0.0145,-0.0121,-0.0241,-0.0191,-0.0177,-0.0174,-0.0202,-0.0202,-0.0202,-0.0202,-0.0202,0.0424,0.0463,0.0546,0.0628,0.0701,0.0826,0.0903,0.1022,0.1165,0.132,0.1307,0.1301,0.0985,0.0523,0.0228,-0.0103,-0.0116,-0.024,-0.0239,-0.0237,-0.0278,-0.0236,-0.0256,-0.0256,-0.0256,-0.0256,-0.0256,0,0.0387,0.0475,0.0571,0.0701,0.081,0.0836,0.1026,0.1136,0.135,0.1463,0.1536,0.125,0.0951,0.0601,0.0105,-0.0199,-0.0234,-0.0288,-0.0263,-0.026,-0.0258,-0.03,-0.0283,-0.0284,-0.0284,-0.0285,0,0,0.0377,0.0474,0.0574,0.0787,0.0879,0.1051,0.1176,0.1354,0.148,0.1589,0.1585,0.1486,0.1063,0.0701,0.0283,0.0015,-0.0051,-0.0046,0.0004,0.0086,0.0092,-0.0207,-0.0267,0,0,0,0,0]}],[{"header":{"parameterUnit":"m.s-1","parameterCategory":2,"la1":30.2991,"la2":30.254,"lo1":-89.0895,"lo2":-89.0444,"dy":0.0017,"dx":0.0017,"nx":28,"ny":28,"refTime":"2025-09-04T09:00:00:Z","depth":"4","parameterNumber":2,"parameterNumberName":"U-component_of_CURRENTS"},"data":[0,0,0,0,0,0,0,0,0,0,0,0,0,0,0,0,0,0,0,0,0,0,0,0,0,0,0,0,0,0,0,0,0,0,0,0,0,0,0,0,0,0,0,0,0,0,0,0,0,0,0,0,0,0,0,0,0,0,0.1198,0.1199,0,0.1275,0.1276,0.1277,0.1305,0.1304,0.1304,0.1304,0.1375,0.1377,0.1379,0,0,0,0,0,0,0,0,0,0,0,0,0,0.1097,0.1098,0.1198,0.1199,0.1201,0.1275,0.1276,0.1277,0.1305,0.1304,0.1304,0.1304,0.1375,0.1377,0.1379,0,0,0,0,0,0,0,0,0,0,0,0,0,0.1152,0.1099,0.1198,0.1225,0.1228,0.1275,0.1276,0.1277,0.1305,0.1304,0.1304,0.1304,0.1374,0.1377,0.138,0.14,0,0,0.1389,0.139,0,0,0,0,0,0,0,0,0.1149,0.1155,0.122,0.1223,0.1227,0.1282,0.1267,0.1319,0.1305,0.1273,0.1304,0.1304,0.1345,0.135,0.1362,0.1403,0.1407,0.1389,0.1391,0.1392,0.1393,0,0,0,0,0,0,0,0.1145,0.1153,0.1227,0.1221,0.1226,0.1241,0.1248,0.1277,0.1307,0.1276,0.1279,0.1291,0.1347,0.1359,0.1364,0.1408,0.1389,0.1392,0.1393,0.1395,0.1496,0.1497,0,0,0,0,0,0,0.1139,0.1149,0.1224,0.1229,0.1189,0.1243,0.1251,0.1263,0.1307,0.1314,0.1291,0.1292,0.1354,0.1361,0.1367,0.1437,0.1392,0.1395,0.1397,0.1495,0.1496,0.1497,0,0,0,0,0,0,0.1137,0.1145,0.1221,0.1192,0.1203,0.1245,0.1258,0.1264,0.1303,0.1319,0.1325,0.1325,0.1354,0.1363,0.1407,0.1438,0.1396,0.1399,0.1494,0.1495,0.1496,0.155,0,0,0,0,0,0,0.1133,0.1144,0.1163,0.1192,0.1205,0.125,0.1259,0.1266,0.131,0.1312,0.135,0.1355,0.1355,0.1402,0.141,0.1441,0.1401,0.1492,0.1494,0.1496,0.1547,0.1553,0.1558,0,0,0,0,0,0.1129,0.1147,0.1163,0.1173,0.1226,0.125,0.1258,0.1286,0.1312,0.1322,0.1355,0.1355,0.1418,0.1406,0.1414,0.1448,0.1492,0.1494,0.1496,0.1544,0.1551,0.1558,0,0,0,0,0,0,0.1112,0.1153,0.1171,0.1201,0.1227,0.1256,0.1277,0.1305,0.1342,0.1352,0.1374,0.1381,0.143,0.143,0.1417,0.1479,0.1453,0.1457,0.1487,0.1494,0.1499,0.1507,0.1404,0,0,0,0,0,0.1119,0.1146,0.1178,0.1205,0.1219,0.1258,0.128,0.1297,0.133,0.1348,0.1382,0.1412,0.1442,0.1461,0.1481,0.1523,0.1529,0.1546,0.1552,0.1556,0.1567,0.1592,0.1602,0.1504,0.1504,0.1504,0,0,0.1123,0.1149,0.1166,0.1205,0.123,0.1255,0.127,0.1303,0.1334,0.135,0.1413,0.1438,0.1457,0.1498,0.152,0.1506,0.1589,0.1559,0.1563,0.1571,0.1596,0.1605,0.1614,0.1505,0.1505,0.1505,0,0,0.1129,0.1164,0.1183,0.1205,0.1244,0.1267,0.1284,0.1328,0.1357,0.1412,0.1433,0.148,0.1528,0.1549,0.1565,0.1615,0.1618,0.1622,0.1661,0.1686,0.1694,0.1702,0.1731,0.1741,0.1624,0.1624,0.1624,0,0.1129,0.1163,0.1192,0.1211,0.1236,0.1278,0.13,0.1335,0.1394,0.1426,0.1433,0.1537,0.1551,0.1616,0.1629,0.163,0.1645,0.1636,0.1694,0.1701,0.1708,0.1736,0.1746,0.1627,0.1627,0.1626,0.1626,0,0.1143,0.1177,0.1188,0.1232,0.126,0.1284,0.1329,0.1374,0.1425,0.1464,0.1547,0.1584,0.1645,0.1657,0.1661,0.1726,0.1722,0.1699,0.1678,0.1721,0.1748,0.1758,0.1631,0.163,0.1629,0.1628,0,0,0.1118,0.1185,0.1192,0.1219,0.1272,0.1296,0.1352,0.1412,0.1467,0.1532,0.1607,0.1671,0.1711,0.1731,0.1756,0.1781,0.1843,0.1766,0.1766,0.1799,0.191,0.1823,0.1824,0.1832,0.1834,0.1835,0.1913,0,0.112,0.1154,0.1198,0.1249,0.1266,0.1326,0.1372,0.1434,0.1503,0.1582,0.1645,0.1727,0.1734,0.1785,0.1811,0.1851,0.1869,0.1824,0.1861,0.1862,0.1782,0.1832,0.184,0.192,0.1922,0.1924,0.1925,0,0.1113,0.1139,0.1176,0.1252,0.1269,0.1317,0.141,0.1463,0.1567,0.162,0.1718,0.178,0.188,0.1853,0.195,0.1926,0.192,0.1928,0.1931,0.1837,0.1792,0.1865,0.1942,0.194,0.1939,0.1938,0.1937,0,0.106,0.1131,0.1164,0.1185,0.1268,0.1317,0.1381,0.1478,0.1523,0.1672,0.1745,0.1853,0.1946,0.1966,0.2024,0.1992,0.2099,0.2049,0.196,0.1954,0.1985,0.1976,0.2071,0.2071,0.2071,0.2071,0.207,0,0.1028,0.106,0.1151,0.1165,0.1226,0.1297,0.1378,0.1462,0.1557,0.1636,0.1779,0.1871,0.1979,0.2063,0.2056,0.2066,0.2132,0.1983,0.1971,0.2006,0.1999,0.1993,0.1983,0.2074,0.2073,0.2072,0.2072,0,0.0956,0.1013,0.1063,0.1162,0.12,0.1251,0.1365,0.1416,0.1543,0.166,0.172,0.1905,0.2048,0.2131,0.2192,0.2124,0.2123,0.2088,0.2159,0.2147,0.1948,0.1939,0.1996,0.1993,0.1991,0.199,0.1988,0,0.0921,0.0928,0.1046,0.1078,0.1134,0.1215,0.1263,0.1388,0.1451,0.1674,0.1727,0.1927,0.2047,0.2094,0.2158,0.2166,0.2117,0.2097,0.1982,0.1959,0.1942,0.1937,0.1931,0.1985,0.1984,0.1984,0.1983,0,0.0842,0.0894,0.0942,0.1002,0.1076,0.1138,0.1236,0.1263,0.1431,0.1566,0.1713,0.1807,0.1967,0.2039,0.2082,0.206,0.2107,0.2075,0.2077,0.1968,0.1946,0.193,0.1927,0.1976,0.1977,0.1978,0.1978,0,0.0795,0.0812,0.0872,0.0929,0.1003,0.1047,0.1115,0.1212,0.1287,0.1536,0.1578,0.1802,0.1957,0.1985,0.2012,0.2019,0.1959,0.1856,0.1868,0.1877,0.18,0.1752,0.1726,0,0,0,0,0,0.0724,0.0732,0.0779,0.0844,0.091,0.0956,0.1082,0.1153,0.1336,0.1402,0.1476,0.162,0.1728,0.182,0.18,0.1929,0.1946,0.1893,0.1828,0.1938,0.1946,0.1866,0,0,0,0,0,0,0.0683,0.0713,0.0748,0.0756,0.0773,0.0844,0.0929,0.1055,0.1097,0.1289,0.1363,0.1498,0.1626,0.1721,0.1761,0.1784,0.1704,0.2001,0.1997,0.1933,0.194,0.1947,0.1867,0,0,0,0,0]},{"header":{"parameterUnit":"m.s-1","parameterCategory":2,"la1":30.2991,"la2":30.254,"lo1":-89.0895,"lo2":-89.0444,"dy":0.0017,"dx":0.0017,"nx":28,"ny":28,"refTime":"2025-09-04T09:00:00:Z","depth":"4","parameterNumber":3,"parameterNumberName":"V-component_of_CURRENTS"},"data":[0,0,0,0,0,0,0,0,0,0,0,0,0,0,0,0,0,0,0,0,0,0,0,0,0,0,0,0,0,0,0,0,0,0,0,0,0,0,0,0,0,0,0,0,0,0,0,0,0,0,0,0,0,0,0,0,0,0,0.0265,0.0265,0,0.0235,0.0235,0.0235,0.0203,0.0202,0.0202,0.0202,0.015,0.0149,0.0148,0,0,0,0,0,0,0,0,0,0,0,0,0,0.0266,0.0267,0.0265,0.0265,0.0264,0.0235,0.0235,0.0235,0.0203,0.0202,0.0202,0.0201,0.015,0.0149,0.0148,0,0,0,0,0,0,0,0,0,0,0,0,0,0.0254,0.0267,0.0265,0.0246,0.0244,0.0236,0.0235,0.0234,0.0203,0.0202,0.0202,0.0201,0.0151,0.0149,0.0148,0.015,0,0,0.0143,0.0143,0,0,0,0,0,0,0,0,0.0254,0.0253,0.0249,0.0247,0.0245,0.0223,0.0217,0.0205,0.0203,0.0217,0.0202,0.0201,0.0173,0.017,0.0165,0.0148,0.0145,0.0143,0.0142,0.0141,0.0141,0,0,0,0,0,0,0,0.0255,0.0254,0.0252,0.0249,0.0246,0.0229,0.0227,0.0214,0.0198,0.0216,0.0214,0.0212,0.0172,0.0166,0.0163,0.0145,0.0143,0.0142,0.0141,0.014,0.0137,0.0138,0,0,0,0,0,0,0.0263,0.0256,0.0253,0.0252,0.0249,0.023,0.0227,0.023,0.0198,0.0194,0.0213,0.0211,0.0169,0.0165,0.0161,0.0182,0.0141,0.014,0.0139,0.0137,0.0138,0.0138,0,0,0,0,0,0,0.0263,0.0263,0.0255,0.0253,0.0251,0.0231,0.0234,0.023,0.0226,0.0196,0.0191,0.0214,0.0169,0.0164,0.0163,0.0179,0.0139,0.0138,0.0136,0.0137,0.0138,0.0211,0,0,0,0,0,0,0.0263,0.0264,0.0268,0.0254,0.0251,0.0263,0.0234,0.0229,0.0226,0.0224,0.0196,0.019,0.0168,0.0166,0.0162,0.0176,0.0137,0.0134,0.0136,0.0138,0.0207,0.0215,0.0221,0,0,0,0,0,0.0264,0.0279,0.0268,0.0268,0.0258,0.0264,0.0262,0.0244,0.0227,0.0236,0.0218,0.0191,0.0172,0.0165,0.016,0.0175,0.0134,0.0136,0.0138,0.0205,0.0213,0.022,0,0,0,0,0,0,0.0285,0.0277,0.0265,0.0277,0.0275,0.0259,0.0267,0.025,0.0242,0.0238,0.0205,0.0199,0.0202,0.0181,0.0174,0.0178,0.0147,0.0148,0.02,0.0208,0.0214,0.022,0.0136,0,0,0,0,0,0.0291,0.03,0.0289,0.03,0.0303,0.0284,0.0283,0.0271,0.0261,0.0257,0.0236,0.0217,0.0206,0.0201,0.0187,0.0193,0.0144,0.0198,0.0205,0.0211,0.0212,0.0156,0.0157,0.0145,0.0145,0.0145,0,0,0.0303,0.0299,0.0305,0.0305,0.0302,0.0314,0.0283,0.029,0.0299,0.0253,0.0262,0.0239,0.0213,0.022,0.0219,0.0204,0.0187,0.0213,0.0218,0.0216,0.0158,0.0159,0.016,0.0146,0.0146,0.0145,0,0,0.0335,0.0331,0.0348,0.0351,0.035,0.0341,0.0347,0.0336,0.0332,0.034,0.0306,0.0296,0.0284,0.0265,0.0255,0.0289,0.0223,0.0284,0.0323,0.0269,0.0269,0.0269,0.02,0.0193,0.0288,0.0288,0.0288,0,0.0346,0.0366,0.0355,0.0373,0.0382,0.0358,0.0381,0.0378,0.0367,0.0365,0.0356,0.0326,0.0306,0.0301,0.0317,0.0304,0.0254,0.0297,0.0277,0.0275,0.0274,0.0203,0.0194,0.0292,0.0292,0.0291,0.0291,0,0.0388,0.0405,0.0421,0.0433,0.0442,0.0462,0.0456,0.0462,0.0453,0.0438,0.0434,0.0406,0.0383,0.038,0.0363,0.0346,0.0306,0.029,0.0256,0.0279,0.0203,0.0193,0.0297,0.0296,0.0295,0.0294,0,0,0.0409,0.0443,0.0447,0.0466,0.0477,0.049,0.0512,0.052,0.0526,0.0512,0.0511,0.05,0.0466,0.0452,0.0419,0.0382,0.0331,0.0339,0.0334,0.0269,0.0193,0.0178,0.0164,0.0306,0.0305,0.0304,0.0141,0,0.0443,0.0492,0.0498,0.0546,0.0571,0.0567,0.0588,0.0589,0.0582,0.0574,0.0536,0.0524,0.0498,0.0487,0.0446,0.0357,0.0308,0.0375,0.0181,0.0175,0.0158,0.0154,0.0301,0.0133,0.0131,0.0129,0.0128,0,0.0474,0.0505,0.056,0.0602,0.0613,0.064,0.0665,0.0682,0.0662,0.0651,0.0622,0.058,0.0528,0.0504,0.0359,0.0399,0.0306,0.0235,0.0226,0.0181,0.0142,0.0106,0.0108,0.0109,0.0111,0.0112,0.0113,0,0.0487,0.0544,0.0592,0.0608,0.0652,0.0681,0.0705,0.0706,0.0713,0.0694,0.0683,0.061,0.0566,0.0452,0.0312,0.0328,0.0133,0.0133,0.0025,0.0022,0.005,0.0052,0.0024,0.0024,0.0025,0.0025,0.0026,0,0.051,0.0547,0.0608,0.0635,0.0693,0.0715,0.0764,0.0769,0.0764,0.0769,0.0722,0.0689,0.0551,0.0428,0.0304,0.0124,0.0117,0.0024,-0.0019,0.0084,0.0092,0.0041,0.0046,0.0019,0.002,0.0022,0.0023,0,0.0506,0.0545,0.0605,0.0674,0.0701,0.0743,0.0802,0.0827,0.0823,0.0824,0.0817,0.0721,0.0571,0.0412,0.0205,0.0111,-0.0055,-0.0119,-0.0017,-0.005,-0.0131,-0.0121,-0.025,-0.0252,-0.0254,-0.0255,-0.0256,0,0.0503,0.0537,0.063,0.0669,0.0707,0.0776,0.0821,0.0851,0.0871,0.084,0.0831,0.0699,0.0621,0.031,0.0148,-0.0108,-0.0132,-0.0223,-0.0149,-0.0129,-0.0158,-0.0146,-0.0134,-0.0259,-0.0259,-0.0259,-0.026,0,0.0504,0.0542,0.0594,0.0677,0.0743,0.0816,0.0882,0.0893,0.0922,0.0911,0.0832,0.0692,0.0513,0.03,0.0094,-0.0081,-0.016,-0.0239,-0.0236,-0.0168,-0.0141,-0.0165,-0.0152,-0.0265,-0.0264,-0.0264,-0.0263,0,0.0503,0.0535,0.061,0.0681,0.0763,0.0838,0.0877,0.0903,0.0919,0.0889,0.085,0.0683,0.0577,0.031,0.0119,-0.0054,-0.008,-0.0115,-0.0118,-0.0115,-0.0013,0.0045,-0.0065,0,0,0,0,0,0.0502,0.0544,0.0607,0.0692,0.0772,0.083,0.0907,0.0938,0.0963,0.0912,0.0884,0.0724,0.0455,0.0331,0.0154,0.0092,-0.0113,-0.0119,-0.0155,-0.0295,-0.0288,-0.0191,0,0,0,0,0,0,0.0504,0.0566,0.0603,0.0694,0.0749,0.0848,0.0908,0.0928,0.0899,0.0888,0.0741,0.0679,0.0408,0.0548,0.0146,0.0093,0.0049,-0.0246,-0.025,-0.0298,-0.0292,-0.0287,-0.0185,0,0,0,0,0]}]]